KD5NDU-15 Weather Reports


time (UTC)temp
C
wind
direction
speed
KPH
gust
KPH
rain 1hr
cm
rain 24hr
cm
rain mn
cm
humidity
%
barometer
mb
20260903062635 25 197 0.0 0.0 0.00 0.00 0.00 87 1016.2
20260903062135 25 197 0.0 0.0 0.00 0.00 0.00 86 1016.3
20260903061635 25 197 0.0 0.0 0.00 0.00 0.00 87 1016.3
20260903061135 25 197 0.0 0.0 0.00 0.00 0.00 85 1016.3
20260903060635 25 197 0.0 0.0 0.00 0.00 0.00 86 1016.2
20260903060135 25 197 0.0 0.0 0.00 0.00 0.00 86 1016.3
20260903055635 25 197 0.0 0.0 0.00 0.00 0.00 85 1016.4
20260903055135 25 197 0.0 0.0 0.00 0.00 0.00 85 1016.4
20260903054635 25 197 0.0 0.0 0.00 0.00 0.00 84 1016.3
20260903054135 25 197 0.0 0.0 0.00 0.00 0.00 84 1016.3
20260903053635 25 197 0.0 0.0 0.00 0.00 0.00 85 1016.3
20260903053135 25 197 0.0 0.0 0.00 0.00 0.00 85 1016.3
20260903052635 25 197 0.0 0.0 0.00 0.00 0.00 85 1016.2
20260903052135 25 197 0.0 0.0 0.00 0.00 0.00 84 1016.1
20260903051635 25 197 0.0 0.0 0.00 0.00 0.00 84 1016.2
20260903051135 25 197 0.0 0.0 0.00 0.00 0.00 84 1016.2
20260903050635 26 197 0.0 0.0 0.00 0.00 0.00 84 1016.2
20260903050135 26 197 0.0 0.0 0.00 0.00 0.00 83 1016.2
20260903045635 26 197 0.0 0.0 0.00 0.00 0.00 83 1016.1
20260903045135 26 197 0.0 0.0 0.00 0.00 0.00 83 1016.0
20260903044635 26 197 0.0 0.0 0.00 0.00 0.00 82 1016.0
20260903044135 26 197 0.0 0.0 0.00 0.00 0.00 82 1016.0
20260903043635 26 197 0.0 0.0 0.00 0.00 0.00 81 1015.9
20260903043135 26 197 0.0 0.0 0.00 0.00 0.00 80 1016.0
20260903042635 26 197 0.0 0.0 0.00 0.00 0.00 81 1016.0
20260903042135 27 197 0.0 0.0 0.00 0.00 0.00 79 1016.1
20260903041635 27 197 0.0 0.0 0.00 0.00 0.00 79 1016.1
20260903041135 27 197 0.0 0.0 0.00 0.00 0.00 79 1016.2
20260903040635 27 197 0.0 0.0 0.00 0.00 0.00 79 1016.1
20260903040135 27 197 0.0 0.0 0.00 0.00 0.00 79 1016.2
20260903035635 27 197 0.0 0.0 0.00 0.00 0.00 78 1016.2
20260903035135 27 197 0.0 0.0 0.00 0.00 0.00 78 1016.2
20260903034635 27 197 0.0 0.0 0.00 0.00 0.00 78 1016.1
20260903034135 27 197 0.0 0.0 0.00 0.00 0.00 78 1016.1
20260903033635 27 197 0.0 0.0 0.00 0.00 0.00 79 1016.2
20260903033135 27 197 0.0 1.6 0.00 0.00 0.00 79 1016.3
20260903032635 27 197 0.0 0.0 0.00 0.00 0.00 78 1016.4
20260903032135 27 197 0.0 0.0 0.00 0.00 0.00 78 1016.4
20260903031635 27 197 0.0 0.0 0.00 0.00 0.00 78 1016.4
20260903031135 27 197 0.0 0.0 0.00 0.00 0.00 78 1016.3
20260903030635 27 197 0.0 1.6 0.00 0.00 0.00 78 1016.2
20260903030135 27 197 0.0 3.2 0.00 0.00 0.00 78 1016.1
20260903025635 28 198 0.0 3.2 0.00 0.00 0.00 76 1016.3
20260903025135 29 191 1.6 3.2 0.00 0.00 0.00 73 1016.2
20260903024635 29 189 1.6 4.8 0.00 0.00 0.00 70 1016.2
20260903024135 30 186 1.6 4.8 0.00 0.00 0.00 69 1016.1
20260903023635 30 173 1.6 3.2 0.00 0.00 0.00 69 1016.1
20260903023135 30 188 1.6 4.8 0.00 0.00 0.00 68 1016.2
20260903022635 30 186 1.6 4.8 0.00 0.00 0.00 68 1016.1
20260903022135 30 166 1.6 3.2 0.00 0.00 0.00 67 1016.2
20260903021635 30 165 0.0 4.8 0.00 0.00 0.00 67 1016.1
20260903021136 30 195 0.0 0.0 0.00 0.00 0.00 66 1016.2
20260903020636 30 195 1.6 3.2 0.00 0.00 0.00 66 1016.1
20260903020136 31 198 1.6 4.8 0.00 0.00 0.00 65 1015.9
20260903015636 31 210 1.6 3.2 0.00 0.00 0.00 65 1015.8
20260903015136 31 174 1.6 4.8 0.00 0.00 0.00 65 1015.7
20260903014636 31 199 1.6 3.2 0.00 0.00 0.00 64 1015.7
20260903014136 31 199 0.0 3.2 0.00 0.00 0.00 64 1015.7
20260903013636 31 200 0.0 1.6 0.00 0.00 0.00 64 1015.6
20260903013136 31 200 1.6 1.6 0.00 0.00 0.00 63 1015.6
20260903012636 31 200 1.6 1.6 0.00 0.00 0.00 63 1015.5
20260903012136 31 200 1.6 3.2 0.00 0.00 0.00 62 1015.3
20260903011636 31 202 1.6 4.8 0.00 0.00 0.00 63 1015.3
20260903011136 31 185 0.0 4.8 0.00 0.00 0.00 63 1015.4
20260903010636 31 201 0.0 3.2 0.00 0.00 0.00 62 1015.3
20260903010136 31 211 1.6 1.6 0.00 0.00 0.00 62 1015.3
20260903005636 32 211 3.2 3.2 0.00 0.00 0.00 61 1015.2
20260903005136 32 227 3.2 6.4 0.00 0.00 0.00 61 1015.2
20260903004636 32 216 1.6 6.4 0.00 0.00 0.00 60 1015.2
20260903004136 32 206 1.6 4.8 0.00 0.00 0.00 60 1015.2
20260903003636 32 194 1.6 4.8 0.00 0.00 0.00 59 1015.2
20260903003136 32 222 3.2 6.4 0.00 0.00 0.00 58 1015.2
20260903002636 33 203 3.2 4.8 0.00 0.00 0.00 57 1015.1
20260903002136 33 193 3.2 4.8 0.00 0.00 0.00 56 1015.1
20260903001636 33 210 1.6 4.8 0.00 0.00 0.00 55 1015.0
20260903001136 33 170 1.6 4.8 0.00 0.00 0.00 54 1015.0
20260903000636 34 167 1.6 4.8 0.00 0.00 0.00 53 1015.0
20260903000136 34 185 3.2 4.8 0.00 0.00 0.00 52 1015.2
20260902235636 34 185 3.2 4.8 0.00 0.00 0.00 51 1015.2
20260902235136 34 198 1.6 6.4 0.00 0.00 0.00 50 1015.2
20260902234636 35 198 3.2 4.8 0.00 0.00 0.00 50 1015.1
20260902234136 35 200 3.2 6.4 0.00 0.00 0.00 49 1015.2
20260902233636 35 203 3.2 8.0 0.00 0.00 0.00 49 1015.2
20260902233136 35 210 4.8 9.7 0.00 0.00 0.00 49 1015.2
20260902232636 35 146 4.8 8.0 0.00 0.00 0.00 49 1015.2
20260902232136 35 183 4.8 11.3 0.00 0.00 0.00 49 1015.2
20260902231636 35 195 4.8 9.7 0.00 0.00 0.00 49 1015.1
20260902231136 35 128 4.8 12.9 0.00 0.00 0.00 48 1015.1
20260902230636 36 203 4.8 11.3 0.00 0.00 0.00 47 1015.0
20260902230136 36 207 3.2 6.4 0.00 0.00 0.00 47 1015.1
20260902225636 36 183 3.2 8.0 0.00 0.00 0.00 47 1015.1
20260902225136 36 97 3.2 8.0 0.00 0.00 0.00 46 1015.1
20260902224636 36 155 3.2 8.0 0.00 0.00 0.00 47 1015.0
20260902224136 36 18 3.2 12.9 0.00 0.00 0.00 46 1015.1
20260902223636 36 44 3.2 6.4 0.00 0.00 0.00 46 1015.1
20260902223136 37 122 3.2 8.0 0.00 0.00 0.00 45 1015.1
20260902222636 37 122 3.2 8.0 0.00 0.00 0.00 45 1015.1
20260902222136 37 143 3.2 9.7 0.00 0.00 0.00 46 1015.2
20260902221636 37 163 3.2 11.3 0.00 0.00 0.00 45 1015.2
20260902221136 37 212 4.8 9.7 0.00 0.00 0.00 45 1015.1
20260902220636 37 141 4.8 14.5 0.00 0.00 0.00 45 1015.2
20260902220136 37 195 4.8 6.4 0.00 0.00 0.00 45 1015.1
20260902215636 38 110 3.2 9.7 0.00 0.00 0.00 45 1015.3
20260902215136 38 195 3.2 9.7 0.00 0.00 0.00 44 1015.2
20260902214636 38 214 3.2 8.0 0.00 0.00 0.00 46 1015.3
20260902214136 38 153 3.2 11.3 0.00 0.00 0.00 45 1015.3
20260902213636 38 69 3.2 9.7 0.00 0.00 0.00 45 1015.4
20260902213136 38 40 3.2 9.7 0.00 0.00 0.00 46 1015.3
20260902212636 37 218 4.8 11.3 0.00 0.00 0.00 46 1015.4
20260902212136 37 138 4.8 9.7 0.00 0.00 0.00 45 1015.3
20260902211636 37 73 3.2 6.4 0.00 0.00 0.00 46 1015.2
20260902211136 37 212 3.2 6.4 0.00 0.00 0.00 46 1015.3
20260902210636 37 1 3.2 9.7 0.00 0.00 0.00 47 1015.3
20260902210136 36 162 1.6 4.8 0.00 0.00 0.00 51 1015.4
20260902205636 36 172 1.6 6.4 0.00 0.00 0.00 48 1015.5
20260902205136 37 143 1.6 4.8 0.00 0.00 0.00 49 1015.5
20260902204636 37 103 3.2 8.0 0.00 0.00 0.00 49 1015.5
20260902204136 37 167 1.6 3.2 0.00 0.00 0.00 49 1015.6
20260902203636 36 18 0.0 3.2 0.00 0.00 0.00 51 1015.6
20260902203136 36 128 0.0 1.6 0.00 0.00 0.00 52 1015.6
20260902202636 36 139 1.6 3.2 0.00 0.00 0.00 52 1015.7
20260902202136 36 144 3.2 8.0 0.00 0.00 0.00 52 1015.7
20260902201636 36 165 3.2 8.0 0.00 0.00 0.00 51 1015.9
20260902201136 36 200 3.2 9.7 0.00 0.00 0.00 51 1015.9
20260902200636 36 136 3.2 8.0 0.00 0.00 0.00 51 1016.0
20260902200136 36 100 1.6 6.4 0.00 0.00 0.00 52 1016.1
20260902195636 36 103 1.6 4.8 0.00 0.00 0.00 51 1016.1
20260902195136 36 134 3.2 8.0 0.00 0.00 0.00 50 1016.2
20260902194636 37 151 3.2 8.0 0.00 0.00 0.00 49 1016.3
20260902194136 36 52 1.6 6.4 0.00 0.00 0.00 50 1016.4
20260902193636 36 89 1.6 4.8 0.00 0.00 0.00 51 1016.4
20260902193136 36 99 3.2 4.8 0.00 0.00 0.00 50 1016.6
20260902192636 36 186 3.2 8.0 0.00 0.00 0.00 50 1016.6
20260902192136 36 103 1.6 6.4 0.00 0.00 0.00 51 1016.7
20260902191636 36 193 3.2 6.4 0.00 0.00 0.00 49 1016.8
20260902191136 36 167 4.8 12.9 0.00 0.00 0.00 49 1016.8
20260902190636 36 82 3.2 11.3 0.00 0.00 0.00 50 1017.0
20260902190136 36 224 3.2 6.4 0.00 0.00 0.00 52 1017.1
20260902185636 35 236 4.8 6.4 0.00 0.00 0.00 53 1017.1
20260902185136 36 232 6.4 12.9 0.00 0.00 0.00 52 1017.3
20260902184636 36 238 4.8 9.7 0.00 0.00 0.00 50 1017.3
20260902184136 37 194 3.2 11.3 0.00 0.00 0.00 50 1017.4
20260902183636 36 164 4.8 9.7 0.00 0.00 0.00 50 1017.3
20260902183136 36 96 3.2 9.7 0.00 0.00 0.00 52 1017.4
20260902182636 37 108 1.6 6.4 0.00 0.00 0.00 52 1017.4
20260902182136 36 243 1.6 4.8 0.00 0.00 0.00 55 1017.5
20260902181636 36 65 1.6 6.4 0.00 0.00 0.00 55 1017.6
20260902181136 36 211 1.6 3.2 0.00 0.00 0.00 54 1017.7
20260902180636 36 225 1.6 4.8 0.00 0.00 0.00 55 1017.7
20260902180136 35 27 1.6 6.4 0.00 0.00 0.00 59 1017.8
20260902175636 35 86 1.6 8.0 0.00 0.00 0.00 57 1017.9
20260902175136 35 155 1.6 6.4 0.00 0.00 0.00 57 1017.9
20260902174636 35 172 0.0 3.2 0.00 0.00 0.00 57 1018.0
20260902174136 35 182 1.6 3.2 0.00 0.00 0.00 57 1018.2
20260902173636 35 179 1.6 4.8 0.00 0.00 0.00 56 1018.3
20260902173136 35 179 0.0 4.8 0.00 0.00 0.00 56 1018.4
20260902172636 35 174 1.6 3.2 0.00 0.00 0.00 56 1018.4
20260902172136 35 153 3.2 6.4 0.00 0.00 0.00 56 1018.5
20260902171636 35 204 3.2 6.4 0.00 0.00 0.00 57 1018.5
20260902171136 35 250 3.2 9.7 0.00 0.00 0.00 56 1018.6
20260902170636 35 295 3.2 8.0 0.00 0.00 0.00 57 1018.6
20260902170136 35 234 4.8 11.3 0.00 0.00 0.00 55 1018.7
20260902165636 35 188 6.4 11.3 0.00 0.00 0.00 57 1018.7
20260902165136 35 214 6.4 11.3 0.00 0.00 0.00 59 1018.6
20260902164636 34 260 6.4 11.3 0.00 0.00 0.00 60 1018.8
20260902164136 34 235 4.8 8.0 0.00 0.00 0.00 60 1019.0
20260902163636 35 226 3.2 6.4 0.00 0.00 0.00 58 1018.9
20260902163136 35 148 4.8 6.4 0.00 0.00 0.00 59 1019.0
20260902162636 35 243 4.8 8.0 0.00 0.00 0.00 58 1018.9
20260902162136 35 205 3.2 12.9 0.00 0.00 0.00 58 1018.9
20260902161636 35 42 4.8 8.0 0.00 0.00 0.00 57 1018.8
20260902161136 35 160 4.8 8.0 0.00 0.00 0.00 59 1018.9
20260902160636 35 227 4.8 8.0 0.00 0.00 0.00 58 1019.0
20260902160136 35 180 4.8 8.0 0.00 0.00 0.00 58 1018.9
20260902155637 35 245 3.2 8.0 0.00 0.00 0.00 58 1019.1
20260902155136 35 219 1.6 6.4 0.00 0.00 0.00 60 1018.9
20260902154636 34 323 1.6 4.8 0.00 0.00 0.00 64 1018.9
20260902154136 34 266 3.2 4.8 0.00 0.00 0.00 66 1019.0
20260902153636 33 208 3.2 6.4 0.00 0.00 0.00 65 1019.1
20260902153136 33 232 3.2 4.8 0.00 0.00 0.00 66 1019.2
20260902152636 33 230 3.2 4.8 0.00 0.00 0.00 69 1019.2
20260902152136 33 189 3.2 9.7 0.00 0.00 0.00 68 1019.3
20260902151636 33 340 1.6 3.2 0.00 0.00 0.00 68 1019.1
20260902151136 33 352 1.6 3.2 0.00 0.00 0.00 69 1019.1
20260902150636 33 110 1.6 3.2 0.00 0.00 0.00 72 1019.0
20260902150136 33 105 1.6 4.8 0.00 0.00 0.00 70 1019.1
20260902145636 33 352 1.6 3.2 0.00 0.00 0.00 71 1019.1
20260902145136 32 236 1.6 3.2 0.00 0.00 0.00 71 1019.0
20260902144636 32 313 0.0 3.2 0.00 0.00 0.00 73 1019.0
20260902144136 32 308 0.0 3.2 0.00 0.00 0.00 72 1018.9
20260902143636 32 332 1.6 1.6 0.00 0.00 0.00 74 1019.1
20260902143136 31 334 1.6 3.2 0.00 0.00 0.00 75 1019.1
20260902142636 31 352 0.0 3.2 0.00 0.00 0.00 75 1019.2
20260902142136 31 338 0.0 3.2 0.00 0.00 0.00 78 1019.1
20260902141636 30 343 1.6 4.8 0.00 0.00 0.00 79 1019.0
20260902141136 30 250 1.6 3.2 0.00 0.00 0.00 79 1019.0
20260902140636 29 245 1.6 3.2 0.00 0.00 0.00 80 1018.9
20260902140136 29 271 1.6 8.0 0.00 0.00 0.00 80 1018.8
20260902135636 28 240 1.6 4.8 0.00 0.00 0.00 81 1019.0
20260902135136 28 238 3.2 6.4 0.00 0.00 0.00 81 1019.1
20260902134636 28 251 3.2 6.4 0.00 0.00 0.00 82 1019.2
20260902134136 27 240 3.2 8.0 0.00 0.00 0.00 83 1019.3
20260902133636 27 234 3.2 6.4 0.00 0.00 0.00 84 1019.2
20260902133136 27 225 3.2 6.4 0.00 0.00 0.00 84 1019.2
20260902132636 27 213 3.2 4.8 0.00 0.00 0.00 85 1019.2
20260902132136 26 207 3.2 4.8 0.00 0.00 0.00 86 1019.3
20260902131636 26 177 1.6 4.8 0.00 0.00 0.00 86 1019.2
20260902131136 26 177 1.6 4.8 0.00 0.00 0.00 86 1019.1
20260902130636 25 176 0.0 3.2 0.00 0.00 0.00 88 1019.2
20260902130136 25 164 0.0 3.2 0.00 0.00 0.00 89 1019.1
20260902125636 24 164 1.6 3.2 0.00 0.00 0.00 91 1019.1
20260902125136 23 156 1.6 4.8 0.00 0.00 0.00 92 1019.1
20260902124636 23 157 1.6 4.8 0.00 0.00 0.00 93 1018.9
20260902124136 23 153 1.6 3.2 0.00 0.00 0.00 93 1018.9
20260902123637 23 150 0.0 3.2 0.00 0.00 0.00 93 1018.8
20260902123136 23 150 0.0 3.2 0.00 0.00 0.00 93 1018.8
20260902122637 23 150 0.0 0.0 0.00 0.00 0.00 93 1018.7
20260902122137 22 150 0.0 0.0 0.00 0.00 0.00 94 1018.7
20260902121637 22 150 0.0 0.0 0.00 0.00 0.00 94 1018.7
20260902121137 22 150 0.0 0.0 0.00 0.00 0.00 94 1018.7
20260902120637 22 150 0.0 0.0 0.00 0.00 0.00 93 1018.5
20260902120137 22 150 0.0 0.0 0.00 0.00 0.00 93 1018.5
20260902115637 22 150 0.0 0.0 0.00 0.00 0.00 93 1018.4
20260902115137 22 150 0.0 0.0 0.00 0.00 0.00 93 1018.2
20260902114637 22 150 0.0 0.0 0.00 0.00 0.00 93 1018.2
20260902114137 22 150 0.0 0.0 0.00 0.00 0.00 93 1018.1
20260902113637 22 150 0.0 0.0 0.00 0.00 0.00 93 1018.0
20260902113137 22 150 0.0 0.0 0.00 0.00 0.00 93 1018.1
20260902112637 22 150 0.0 0.0 0.00 0.00 0.00 93 1018.1
20260902112137 22 150 0.0 0.0 0.00 0.00 0.00 93 1018.1
20260902111637 22 150 0.0 0.0 0.00 0.00 0.00 93 1018.0
20260902111137 22 150 0.0 0.0 0.00 0.00 0.00 93 1018.0
20260902110637 22 150 0.0 0.0 0.00 0.00 0.00 93 1017.9
20260902110137 22 150 0.0 0.0 0.00 0.00 0.00 92 1017.8
20260902105637 23 150 0.0 0.0 0.00 0.00 0.00 92 1017.7
20260902105137 23 150 0.0 1.6 0.00 0.00 0.00 92 1017.6
20260902104637 23 150 0.0 0.0 0.00 0.00 0.00 92 1017.4
20260902104137 23 150 0.0 3.2 0.00 0.00 0.00 92 1017.5
20260902103637 23 139 0.0 0.0 0.00 0.00 0.00 92 1017.4
20260902103137 23 139 0.0 0.0 0.00 0.00 0.00 92 1017.5
20260902102637 23 139 0.0 0.0 0.00 0.00 0.00 92 1017.4
20260902102137 23 139 0.0 0.0 0.00 0.00 0.00 92 1017.3
20260902101637 23 139 0.0 0.0 0.00 0.00 0.00 92 1017.4
20260902101137 23 139 0.0 0.0 0.00 0.00 0.00 92 1017.4
20260902100637 23 139 0.0 0.0 0.00 0.00 0.00 92 1017.5
20260902100137 23 139 0.0 0.0 0.00 0.00 0.00 92 1017.4
20260902095637 23 139 0.0 0.0 0.00 0.00 0.00 92 1017.4
20260902095137 23 139 0.0 0.0 0.00 0.00 0.00 92 1017.3
20260902094637 23 139 0.0 0.0 0.00 0.00 0.00 92 1017.3
20260902094137 23 139 0.0 0.0 0.00 0.00 0.00 92 1017.5
20260902093637 23 139 1.6 0.0 0.00 0.00 0.00 92 1017.4
20260902093137 23 139 1.6 3.2 0.00 0.00 0.00 92 1017.4
20260902092637 23 136 1.6 4.8 0.00 0.00 0.00 91 1017.4
20260902092137 23 132 0.0 0.0 0.00 0.00 0.00 89 1017.3
20260902091637 23 132 0.0 0.0 0.00 0.00 0.00 89 1017.4
20260902091137 24 132 0.0 0.0 0.00 0.00 0.00 89 1017.3
20260902090637 24 132 0.0 0.0 0.00 0.00 0.00 88 1017.2
20260902090137 24 132 0.0 0.0 0.00 0.00 0.00 88 1017.3
20260902085637 24 132 0.0 0.0 0.00 0.00 0.00 88 1017.2
20260902085137 25 132 0.0 1.6 0.00 0.00 0.00 87 1017.1
20260902084637 25 132 0.0 1.6 0.00 0.00 0.00 87 1017.1
20260902084137 25 132 0.0 1.6 0.00 0.00 0.00 86 1017.0
20260902083637 25 132 0.0 3.2 0.00 0.00 0.00 87 1016.9
20260902083137 25 132 0.0 3.2 0.00 0.00 0.00 87 1017.0
20260902082637 24 135 0.0 3.2 0.00 0.00 0.00 88 1017.0
20260902082137 24 134 0.0 3.2 0.00 0.00 0.00 88 1017.0
20260902081637 24 133 0.0 3.2 0.00 0.00 0.00 88 1016.9
20260902081137 24 158 0.0 0.0 0.00 0.00 0.00 88 1016.8
20260902080637 25 158 0.0 0.0 0.00 0.00 0.00 87 1016.9
20260902080137 25 158 0.0 0.0 0.00 0.00 0.00 86 1017.0
20260902075637 25 158 0.0 1.6 0.00 0.00 0.00 85 1016.9
20260902075137 25 158 0.0 1.6 0.00 0.00 0.00 85 1016.9
20260902074637 25 158 0.0 3.2 0.00 0.00 0.00 84 1017.0
20260902074137 25 158 0.0 3.2 0.00 0.00 0.00 84 1017.1
20260902073637 25 158 0.0 1.6 0.00 0.00 0.00 84 1017.1
20260902073137 25 158 0.0 3.2 0.00 0.00 0.00 84 1017.1
20260902072637 25 159 0.0 1.6 0.00 0.00 0.00 85 1017.1
20260902072137 25 159 0.0 1.6 0.00 0.00 0.00 84 1017.0
20260902071637 25 159 0.0 1.6 0.00 0.00 0.00 84 1017.0
20260902071137 25 159 0.0 1.6 0.00 0.00 0.00 84 1017.1
20260902070637 25 159 1.6 3.2 0.00 0.00 0.00 84 1017.1
20260902070137 25 159 0.0 3.2 0.00 0.00 0.00 84 1017.1
20260902065637 25 159 0.0 1.6 0.00 0.00 0.00 84 1016.9
20260902065137 26 160 0.0 1.6 0.00 0.00 0.00 84 1017.0
20260902064637 26 160 0.0 1.6 0.00 0.00 0.00 83 1017.1
20260902064137 26 160 0.0 3.2 0.00 0.00 0.00 83 1017.1
20260902063637 26 160 0.0 3.2 0.00 0.00 0.00 83 1017.0
20260902063137 26 160 1.6 1.6 0.00 0.00 0.00 83 1017.2